CW9463 Weather Reports


time (UTC)temp
F
wind
direction
speed
knots
gust
knots
rain 1hr
in
rain 24hr
in
rain mn
in
humidity
%
barometer
mb
20260504050019 53 248 0.0 0.9 0.00 0.08 0.00 77 1005.7
20260504044528 54 248 0.0 2.6 0.00 0.08 0.08 76 1005.6
20260504043027 55 169 0.9 3.5 0.00 0.08 0.08 75 1005.7
20260504041517 55 177 0.0 2.6 0.00 0.08 0.08 75 1005.6
20260504040020 55 158 0.9 1.7 0.00 0.08 0.08 74 1005.6
20260504034516 55 173 0.9 2.6 0.00 0.08 0.08 73 1005.7
20260504033015 56 192 0.0 0.9 0.00 0.08 0.08 72 1005.9
20260504031518 56 190 0.9 3.5 0.00 0.08 0.08 72 1006.1
20260504030014 56 189 0.0 2.6 0.00 0.08 0.08 71 1006.1
20260504024514 56 190 0.0 0.0 0.00 0.08 0.08 72 1006.1
20260504023013 56 42 0.0 0.0 0.00 0.08 0.08 70 1006.1
20260504021515 57 196 0.0 0.0 0.00 0.08 0.08 69 1006.0
20260504020012 57 196 0.0 0.0 0.00 0.08 0.08 68 1005.8
20260504014512 58 196 0.0 0.0 0.00 0.08 0.08 68 1005.7
20260504013017 59 196 0.0 1.7 0.00 0.08 0.08 66 1005.5
20260504011511 60 226 0.0 1.7 0.00 0.08 0.08 64 1005.5
20260504010010 61 180 0.0 2.6 0.00 0.08 0.08 64 1005.5
20260504004516 62 227 0.0 1.7 0.00 0.08 0.08 62 1005.5
20260504003009 63 218 0.0 3.5 0.00 0.08 0.08 60 1005.5
20260504001509 64 296 0.9 3.5 0.00 0.08 0.08 58 1005.5
20260504000008 64 216 0.9 2.6 0.00 0.08 0.08 57 1005.5
20260503234509 65 277 0.0 2.6 0.00 0.08 0.08 58 1005.6
20260503233006 65 267 0.9 3.5 0.00 0.08 0.08 56 1005.6
20260503231506 66 230 0.9 3.5 0.00 0.08 0.08 53 1005.7
20260503230004 66 260 0.9 5.2 0.00 0.08 0.08 54 1005.7
20260503224503 66 272 1.7 7.0 0.00 0.08 0.08 53 1005.9
20260503223003 67 250 1.7 8.7 0.00 0.08 0.08 51 1006.0
20260503221501 66 246 2.6 7.0 0.00 0.08 0.08 52 1005.9
20260503220100 67 231 0.9 6.1 0.00 0.08 0.08 52 1006.2
20260503214558 66 283 1.7 4.3 0.00 0.08 0.08 54 1006.2
20260503213102 67 246 0.9 3.5 0.00 0.08 0.08 51 1006.5
20260503211611 65 213 1.7 4.3 0.00 0.08 0.08 49 1006.6
20260503210052 65 232 0.9 3.5 0.00 0.08 0.08 54 1006.9
20260503204550 65 196 1.7 5.2 0.00 0.08 0.08 54 1007.3
20260503203050 66 184 2.6 7.0 0.00 0.08 0.08 50 1007.7
20260503201548 66 161 2.6 7.8 0.00 0.08 0.08 49 1007.7
20260503200055 65 146 3.5 8.7 0.00 0.08 0.08 48 1007.9
20260503194545 65 182 2.6 8.7 0.00 0.08 0.08 50 1008.3
20260503193055 67 22 3.5 7.8 0.00 0.08 0.08 50 1008.4
20260503191543 66 162 3.5 7.8 0.00 0.08 0.08 51 1008.6
20260503190035 64 200 1.7 7.0 0.00 0.08 0.08 59 1008.8
20260503184540 63 170 1.7 7.0 0.00 0.08 0.08 61 1009.0
20260503183027 61 192 2.6 7.0 0.00 0.08 0.08 64 1009.2
20260503181522 59 183 1.7 5.2 0.01 0.08 0.08 71 1009.7
20260503180035 57 173 1.7 6.1 0.01 0.08 0.08 75 1010.2
20260503174517 52 259 1.7 4.3 0.01 0.08 0.08 86 1010.7
20260503173014 48 59 0.0 0.9 0.01 0.08 0.08 89 1011.1
20260503171509 48 190 0.0 1.7 0.01 0.07 0.07 89 1011.9
20260503150106 52 258 1.7 5.2 0.00 0.00 0.00 69 1014.5
20260503081558 41 169 0.0 0.9 0.00 0.00 0.00 74 1015.0